Regional Weather Roundup
Issued by NWS Memphis, TN

Current Version | Previous Version | Text Only | Print | Product List | Glossary On
Versions: 1 2 3 4 5 6 7 8 9 10 11 12 13 14 15 16 17 18 19 20 21 22 23 24 25 26 27 28 29 30 31 32 33 34 35 36 37 38 39 40 41 42 43 44 45 46 47 48 49 50
000
ASUS44 KMEG 220210
RWRMEG
MEMPHIS CWA HOURLY WEATHER ROUNDUP
NATIONAL WEATHER SERVICE MEMPHIS TN
900 PM CDT THU AUG 21 2014

...WEST TENNESSEE...

CITY           SKY/WX    TMP DP  RH WIND       PRES   REMARKS
MEMPHIS INTL   PTCLDY    86  74  67 SW9       30.06R HX  94
NWS MEMPHIS      N/A     86 N/A N/A MISG        N/A
JACKSON        CLEAR     81  74  79 S7        30.05R
LEXINGTON      CLEAR     81  73  78 S3        30.05R
SAVANNAH       CLEAR     79  79 100 CALM      30.08R
DYERSBURG      CLEAR     82  66  57 CALM      30.03R
UNION CITY     CLEAR     79  73  83 S7        30.01R
PARIS          CLEAR     77  72  83 S7        30.05R
HUNTINGDON     CLEAR     79  74  84 S3        30.04R


...EASTERN ARKANSAS...

CITY           SKY/WX    TMP DP  RH WIND       PRES   REMARKS
JONESBORO      PTCLDY    84  73  69 S9        30.02R HX  90
WEST MEMPHIS   CLEAR     83  76  79 S7        30.03R HX  91
BATESVILLE     PTCLDY    84  72  65 S10G18    30.02R
NEWPORT        CLEAR     82  74  77 S12       30.03R
WALNUT RIDGE   PTCLDY    82  64  54 S15       30.00R
BLYTHEVILLE    PTCLDY    81  76  84 S7        30.02R
SEARCY           N/A     82  75  79 CALM        N/A
STUTTGART      CLEAR     84  73  70 S6        30.05S HX  91
PINE BLUFF     CLEAR     80  75  84 S5        30.04F
MONTICELLO     CLEAR     83  76  79 CALM      30.05F HX  91


...NORTH MISSISSIPPI...

CITY           SKY/WX    TMP DP  RH WIND       PRES   REMARKS
TUPELO         CLEAR     83  73  72 CALM      30.08R
OLIVE BRANCH   CLEAR     81  79  94 S8        30.07R
CLARKSDALE     CLEAR     81  79  94 CALM      30.06F
CORINTH        CLEAR     81  73  78 SW5       30.07R
GRENADA        PTCLDY    82  73  74 CALM      30.07S
GREENWOOD      PTCLDY    81  74  79 S7        30.07F
COLUMBUS       PTCLDY    80  75  85 S2        30.09R
STARKVILLE     FAIR      81  72  74 S7        30.11R
GOLDEN TRIANGL PTCLDY    82  70  65 S7G17     30.11R


...SOUTHEAST MISSOURI...

CITY           SKY/WX    TMP DP  RH WIND       PRES   REMARKS
WEST PLAINS    CLEAR     84  65  52 SW8       30.03R
POPLAR BLUFF   MOCLDY    83  72  69 S7        29.98R
CAPE GIRARDEAU CLOUDY    83  74  74 S9        29.98R


...NORTHWEST ALABAMA...

CITY           SKY/WX    TMP DP  RH WIND       PRES   REMARKS
MUSCLE SHOALS  CLEAR     79  73  82 CALM      30.09S


...MIDDLE TENNESSEE...

CITY           SKY/WX    TMP DP  RH WIND       PRES   REMARKS
NASHVILLE      PTCLDY    85  72  65 SW5       30.06R HX  91
CLARKSVILLE    CLEAR     82  72  71 S5        30.03R
DICKSON        CLEAR     79  72  78 S6        30.07R
COLUMBIA       CLEAR     81  75  83 CALM      30.07R
LEWISBURG      CLEAR     78  72  82 S3        30.08R


...WESTERN KENTUCKY...

CITY           SKY/WX    TMP DP  RH WIND       PRES   REMARKS
PADUCAH        MOCLDY    84  74  71 S3        30.00R HX  91
FORT CAMPBELL  CLEAR     82  73  74 S5        30.04R


...CENTRAL ARKANSAS...

CITY           SKY/WX    TMP DP  RH WIND       PRES   REMARKS
LITTLE ROCK    MOCLDY    83  72  69 S7        30.03S


SKY/WX REPORTED AS FAIR MEANS FEW OR NO CLOUDS BELOW
12 THOUSAND FEET.




USA.gov is the U.S. government's official web portal to all federal, state and local government web resources and services.